Tracking 19634 objects as of 22-May-2019
HD Live streaming from Space Station
objects crossing your sky now

FAST

Track FAST now!
10-day predictions
FAST is classified as:


NORAD ID: 24285
Int'l Code: 1996-049A
Perigee: 354.0 km
Apogee: 3,445.8 km
Inclination: 83.0 °
Period: 124.8 minutes
Semi major axis: 8270 km
RCS: 1.3393 m2 (large)
Launch date: August 21, 1996
Source: United States (US)
Launch site: AIR FORCE WESTERN TEST RANGE (AFWTR)

Designed to study Earth's aurora.
aabbcc
Your satellite tracking list
Your tracking list is empty




NASA's NSSDC Master Catalog

Two Line Element Set (TLE):
1 24285U 96049A   19141.66713724  .00000437  00000-0  36062-4 0  9996
2 24285  82.9617 349.1344 1869059 301.2462  41.8553 11.54176090931991
Source of the keplerian elements: AFSPC